(83599) = 1998 FF91 = 2001 SE266

Discovered at Desert Eagle on 2001-09-25 by W. K. Y. Yeung.

Orbit

Orbit type: Main Belt

Note: WebGL enabled browser required.

epoch2024-03-31.0
epoch JD2460400.5
perihelion date2025-10-07.34690
perihelion JD2460955.84690
argument of perihelion (°)117.13469
ascending node (°)26.64326
inclination (°)15.96817
eccentricity0.0555291
perihelion distance (AU)2.9821628
Tisserand w.r.t. Jupiter3.1
ΔV w.r.t. Earth (km/sec)11.8
semimajor axis (AU)3.1574956
mean anomaly (°)262.44398
mean daily motion (°/day)0.17566680
aphelion distance (AU)3.333
period (years)5.61
P-vector [x]-0.79133445
P-vector [y]0.41660973
P-vector [z]0.44746635
Q-vector [x]-0.59880773
Q-vector [y]-0.67582237
Q-vector [z]-0.42975972
absolute magnitude14.1
phase slope0.15
uncertainty0
referenceMPEC 2024-C163
observations used2402
oppositions20
arc length (days)9389
first opposition used1998
last opposition used2023
residual rms (arc-secs)0.59
perturbers coarse indicatorM-v
perturbers precise indicator003Ek
first observation date used1998-03-24.0
last observation date used2023-12-07.0
computer nameMPCLINUX
JD of orbit computation2456937.539751
perihelion JD uncertainty (days)3.3284E-04
argument of perihelion uncertainty (°)6.0429E-05
ascending node uncertainty (°)1.5212E-05
inclination uncertainty (°)7.4573E-06
eccentricity uncertainty 5.1779E-08
perihelion distance uncertainty (AU)1.7121E-07
Minimum Orbit Intersection Distances (in AU)
for orbit epoch: 2460200.5, reference: E2024-CG3
Mercury2.60802
Venus2.27042
Earth2.01512
Mars1.3644
Jupiter1.69255
Saturn6.04275
Uranus15.4874
Neptune26.5876

Observations

2433 total observations over interval: 1998 03 24.15393 – 2023 12 07.145848
These data are available for download (format description).

Date (UT) J2000 RA J2000 Dec Magn Location Ref
1998 03 24.15393 11 40 12.63 +16 39 21.4 18.4   704 – Lincoln Laboratory ETS, New Mexico MPS 994
1998 03 24.17431 11 40 11.58 +16 39 22.9 18.4   704 – Lincoln Laboratory ETS, New Mexico MPS 994
1998 03 24.19501 11 40 10.45 +16 39 20.5 18.6   704 – Lincoln Laboratory ETS, New Mexico MPS 994
1998 03 24.21524 11 40 09.28 +16 39 20.1 18.9   704 – Lincoln Laboratory ETS, New Mexico MPS 994
1998 03 25.13413 11 39 20.76 +16 39 06.7 18.6   704 – Lincoln Laboratory ETS, New Mexico MPS 994
1998 03 25.15439 11 39 19.68 +16 39 07.2 18.5   704 – Lincoln Laboratory ETS, New Mexico MPS 994
1998 03 25.17497 11 39 18.52 +16 39 07.6 18.7   704 – Lincoln Laboratory ETS, New Mexico MPS 994
1998 03 25.19527 11 39 17.43 +16 39 07.2 19.2   704 – Lincoln Laboratory ETS, New Mexico MPS 994
1998 03 25.21559 11 39 16.35 +16 39 05.9 19.2   704 – Lincoln Laboratory ETS, New Mexico MPS 994
1998 04 19.13668 11 21 54.29 +15 38 48.8 18.6   704 – Lincoln Laboratory ETS, New Mexico MPS 44029
1998 04 19.15684 11 21 53.47 +15 38 44.4 18.8   704 – Lincoln Laboratory ETS, New Mexico MPS 44029
1998 04 19.17707 11 21 53.06 +15 38 39.6 18.8   704 – Lincoln Laboratory ETS, New Mexico MPS 44029
1998 04 19.21759 11 21 51.79 +15 38 28.0 19.0   704 – Lincoln Laboratory ETS, New Mexico MPS 44029
2001 08 25.40805 02 39 04.95 +14 48 46.5 17.1 R 699 – Lowell Observatory-LONEOS MPS 38290
2001 08 25.42450 02 39 05.14 +14 48 51.0   699 – Lowell Observatory-LONEOS MPS 38290
2001 08 25.44097 02 39 05.22 +14 48 53.3   699 – Lowell Observatory-LONEOS MPS 38290
2001 08 25.45747 02 39 05.27 +14 48 57.5   699 – Lowell Observatory-LONEOS MPS 38290
2001 09 20.39971 02 35 49.69 +16 06 57.5 18.9   704 – Lincoln Laboratory ETS, New Mexico MPS 38290
2001 09 20.41379 02 35 49.33 +16 06 59.7 19.1   704 – Lincoln Laboratory ETS, New Mexico MPS 38290
2001 09 20.42786 02 35 48.93 +16 07 01.3 18.9   704 – Lincoln Laboratory ETS, New Mexico MPS 38290
2001 09 20.44193 02 35 48.56 +16 07 03.2 19.1   704 – Lincoln Laboratory ETS, New Mexico MPS 38290
2001 09 20.45600 02 35 48.19 +16 07 05.2 19.2   704 – Lincoln Laboratory ETS, New Mexico MPS 38290
2001 09 21.31819 02 35 26.63 +16 08 50.6 19.1 R 699 – Lowell Observatory-LONEOS MPS 38290
2001 09 21.34159 02 35 25.89 +16 08 52.7   699 – Lowell Observatory-LONEOS MPS 38290
2001 09 21.36502 02 35 25.17 +16 08 56.7   699 – Lowell Observatory-LONEOS MPS 38290
2001 09 21.38850 02 35 24.58 +16 08 59.8   699 – Lowell Observatory-LONEOS MPS 38290
2001 09 24.34445 02 34 02.29 +16 14 35.9 19.3   704 – Lincoln Laboratory ETS, New Mexico MPS 41972
2001 09 24.37368 02 34 01.32 +16 14 40.7 19.9   704 – Lincoln Laboratory ETS, New Mexico MPS 41972
2001 09 24.38830 02 34 00.85 +16 14 40.7 19.6   704 – Lincoln Laboratory ETS, New Mexico MPS 41972
2001 09 24.40293 02 34 00.36 +16 14 43.0 19.5   704 – Lincoln Laboratory ETS, New Mexico MPS 41972
2001 09 25.35130 02 33 31.62 +16 16 21.3 19.0 V 333 – Desert Eagle Observatory MPS 36821
2001 09 25.36615 02 33 31.11 +16 16 23.3 18.7 V 333 – Desert Eagle Observatory MPS 36821
2001 09 25.38111 02 33 30.57 +16 16 24.9 18.8 V 333 – Desert Eagle Observatory MPS 36821
2001 09 26.37103 02 32 59.25 +16 18 03.1 18.9 V 333 – Desert Eagle Observatory MPS 36821
2001 09 26.38600 02 32 58.78 +16 18 04.9 18.7 V 333 – Desert Eagle Observatory MPS 36821
2001 09 26.40079 02 32 58.23 +16 18 06.2 19.3 V 333 – Desert Eagle Observatory MPS 36821
2001 10 11.49299 02 22 42.06 +16 33 53.8 18.5   644 – Palomar Mountain/NEAT MPS 38290
2001 10 11.50494 02 22 41.47 +16 33 53.8 18.6   644 – Palomar Mountain/NEAT MPS 38290
2001 10 11.52135 02 22 40.67 +16 33 54.2 18.6   644 – Palomar Mountain/NEAT MPS 38290
2001 10 13.25498 02 21 16.11 +16 34 35.7 18.7   704 – Lincoln Laboratory ETS, New Mexico MPS 38290
2001 10 13.27062 02 21 15.30 +16 34 36.1 19.2   704 – Lincoln Laboratory ETS, New Mexico MPS 38290
2001 10 13.28638 02 21 14.54 +16 34 36.2 19.2   704 – Lincoln Laboratory ETS, New Mexico MPS 38290
2001 10 13.30228 02 21 13.70 +16 34 37.2 18.8   704 – Lincoln Laboratory ETS, New Mexico MPS 38290
2001 10 13.31799 02 21 12.91 +16 34 37.5 19.2   704 – Lincoln Laboratory ETS, New Mexico MPS 38290
2001 10 17.25333 02 17 52.13 +16 35 22.1 18.6   704 – Lincoln Laboratory ETS, New Mexico MPS 39413
2001 10 17.26891 02 17 51.28 +16 35 21.7 19.2   704 – Lincoln Laboratory ETS, New Mexico MPS 39413
2001 10 17.28461 02 17 50.45 +16 35 22.1 19.1   704 – Lincoln Laboratory ETS, New Mexico MPS 39413
2001 10 17.30035 02 17 49.58 +16 35 21.6 19.3   704 – Lincoln Laboratory ETS, New Mexico MPS 39413
2001 10 21.33710 02 14 14.50 +16 35 02.9 18.6   704 – Lincoln Laboratory ETS, New Mexico MPS 40674
2001 10 21.35343 02 14 13.60 +16 35 02.3 18.3   704 – Lincoln Laboratory ETS, New Mexico MPS 40674
2001 10 21.36977 02 14 12.68 +16 35 02.3 18.6   704 – Lincoln Laboratory ETS, New Mexico MPS 40674
2001 10 21.38611 02 14 11.81 +16 35 02.5 18.9   704 – Lincoln Laboratory ETS, New Mexico MPS 40674
2001 10 21.40245 02 14 10.89 +16 35 02.2 18.6   704 – Lincoln Laboratory ETS, New Mexico MPS 40674
2001 10 23.25467 02 12 30.25 +16 34 32.7 18.4   704 – Lincoln Laboratory ETS, New Mexico MPS 40674
2001 10 23.27107 02 12 29.33 +16 34 32.6 18.9   704 – Lincoln Laboratory ETS, New Mexico MPS 40674
2001 10 23.28747 02 12 28.37 +16 34 32.2 18.6   704 – Lincoln Laboratory ETS, New Mexico MPS 40674
2001 10 23.30388 02 12 27.46 +16 34 32.0 18.6   704 – Lincoln Laboratory ETS, New Mexico MPS 40674
2001 10 23.32029 02 12 26.54 +16 34 31.4 18.7   704 – Lincoln Laboratory ETS, New Mexico MPS 40674
2001 10 24.23368 02 11 36.62 +16 34 12.5 18.6 V 333 – Desert Eagle Observatory MPS 39413
2001 10 24.25545 02 11 35.31 +16 34 13.1 19.0 V 333 – Desert Eagle Observatory MPS 39413
2001 10 24.27725 02 11 34.16 +16 34 12.6 18.7 V 333 – Desert Eagle Observatory MPS 39413
2001 10 25.22742 02 10 42.02 +16 33 49.8 18.5 V 333 – Desert Eagle Observatory MPS 39413
2001 10 25.24905 02 10 40.77 +16 33 50.1 18.6 V 333 – Desert Eagle Observatory MPS 39413
2001 10 25.27087 02 10 39.49 +16 33 49.1 18.7 V 333 – Desert Eagle Observatory MPS 39413
2001 10 26.21534 02 09 47.43 +16 33 24.5 18.7 V 333 – Desert Eagle Observatory MPS 39413
2001 10 26.24593 02 09 45.76 +16 33 23.8 18.5 V 333 – Desert Eagle Observatory MPS 39413
2001 10 26.26774 02 09 44.51 +16 33 22.8 18.7 V 333 – Desert Eagle Observatory MPS 39413
2001 10 26.34428 02 09 40.24 +16 33 21.3 18.2   644 – Palomar Mountain/NEAT MPS 41972
2001 10 26.36607 02 09 39.00 +16 33 20.8 18.7   644 – Palomar Mountain/NEAT MPS 41972
2001 10 26.38625 02 09 37.86 +16 33 20.1 18.1   644 – Palomar Mountain/NEAT MPS 41972
2001 11 10.34042 01 56 11.16 +16 22 46.5 18.9   644 – Palomar Mountain/NEAT MPS 40674
2001 11 10.35094 01 56 10.60 +16 22 45.9 18.4   644 – Palomar Mountain/NEAT MPS 40674
2001 11 10.36146 01 56 10.03 +16 22 45.4 19.0   644 – Palomar Mountain/NEAT MPS 40674
2001 11 11.18552 01 55 28.67 +16 22 04.7 18.4 R 699 – Lowell Observatory-LONEOS MPS 44029
2001 11 11.20906 01 55 27.47 +16 22 04.2   699 – Lowell Observatory-LONEOS MPS 44029
2001 11 11.23247 01 55 26.26 +16 22 01.9   699 – Lowell Observatory-LONEOS MPS 44029
2001 11 11.25590 01 55 24.97 +16 22 01.2   699 – Lowell Observatory-LONEOS MPS 44029
2001 11 12.21250 01 54 37.33 +16 21 13.9 19.0   704 – Lincoln Laboratory ETS, New Mexico MPS 41972
2001 11 12.22684 01 54 36.62 +16 21 12.5 18.8   704 – Lincoln Laboratory ETS, New Mexico MPS 41972
2001 11 12.24170 01 54 35.79 +16 21 12.2 19.0   704 – Lincoln Laboratory ETS, New Mexico MPS 41972
2001 11 12.25636 01 54 35.06 +16 21 10.1 19.0   704 – Lincoln Laboratory ETS, New Mexico MPS 41972
2001 11 12.27221 01 54 34.29 +16 21 10.5 18.7   704 – Lincoln Laboratory ETS, New Mexico MPS 41972
2001 11 17.21850 01 50 39.98 +16 17 15.9 19.0   704 – Lincoln Laboratory ETS, New Mexico MPS 41972
2001 11 17.23285 01 50 39.30 +16 17 15.4 18.9   704 – Lincoln Laboratory ETS, New Mexico MPS 41972
2001 11 17.24722 01 50 38.61 +16 17 15.0 18.9   704 – Lincoln Laboratory ETS, New Mexico MPS 41972
2001 11 17.26159 01 50 37.96 +16 17 13.9 19.1   704 – Lincoln Laboratory ETS, New Mexico MPS 41972
2001 11 17.27597 01 50 37.30 +16 17 13.4 19.1   704 – Lincoln Laboratory ETS, New Mexico MPS 41972
